CAPE
0 0 0 0 0 0 0 0 0 0 34 2 0 0 0 0 0 2 0 6 1 0 0 0 321 627 1155 1397 1300 1312 1295 1210 1299 1335 1169 920 800 705 827 490 418 344 306 226
0 0 0 0 0 0 0 0 0 0 40 14 0 0 0 0 0 1 0 17 17 14 0 0 255 812 1247 1612 1451 1247 1204 1190 1392 1230 1239 1130 994 907 755 682 594 543 429 325
0 0 0 0 0 1 0 0 0 0 26 34 0 0 0 0 9 11 21 30 1 2 0 0 99 855 1200 1282 1355 1434 1290 1260 1239 1321 1049 975 784 689 718 725 666 518 342 346
0 1 0 2 0 5 0 0 0 26 0 0 41 0 0 0 0 1 36 7 0 0 0 0 22 498 1093 1287 1228 1326 1421 1340 1322 1165 1183 982 833 619 598 742 440 299 254 266
4 0 19 47 1 8 0 0 0 0 1 0 9 0 0 0 0 0 0 0 0 0 0 0 0 390 939 1145 1229 1371 1435 1415 1462 1297 1069 872 549 446 379 286 221 226 186 165
12 10 29 25 6 0 0 1 1 1 14 0 0 0 0 0 0 0 0 0 0 0 0 0 0 124 959 1133 1230 1312 1250 1336 1402 1134 845 643 411 195 187 156 126 109 187 209
13 37 57 8 14 0 8 1 15 4 0 0 0 4 0 0 0 0 0 0 0 0 0 0 0 17 700 1044 1276 1125 1027 1091 1151 844 360 266 103 123 117 85 31 5 6 38
0 4 29 9 0 0 6 0 0 7 0 0 2 4 0 0 0 0 0 0 0 0 0 0 0 0 7 19 32 631 693 832 669 423 181 66 48 52 107 73 3 0 7 3
11 0 30 0 0 0 12 3 0 0 0 0 0 0 0 0 0 0 0 0 0 0 0 0 0 1 9 21 17 64 243 320 486 556 501 356 80 50 29 1 0 0 0 0
3 3 0 0 0 0 7 2 3 1 0 0 0 0 0 0 0 0 0 0 0 0 0 0 0 1 12 29 30 19 2 41 60 67 49 59 118 145 87 32 23 5 15 28
0 1 0 0 0 0 0 0 0 0 3 6 0 0 0 0 0 0 0 0 0 0 0 0 0 1 2 6 4 0 0 0 0 11 33 55 33 54 66 47 25 12 4 4
0 0 0 0 0 0 0 0 0 0 0 3 0 0 0 0 0 0 0 0 1 7 0 0 0 0 0 0 0 0 0 0 0 10 37 44 52 36 45 12 1 2 0 0
0 15 0 5 0 0 0 0 0 0 0 0 2 0 0 0 0 0 0 0 0 0 0 0 0 0 0 0 0 0 0 0 0 3 17 35 41 52 57 2 0 0 0 0
0 0 0 0 0 0 0 0 0 0 0 14 8 0 0 0 0 0 0 0 0 0 0 0 0 0 0 0 0 0 0 0 0 0 0 0 11 26 17 0 0 0 0 0
0 0 0 0 0 0 0 0 0 0 0 0 0 0 0 0 0 0 0 0 0 0 0 0 0 0 0 0 0 0 0 0 0 0 0 0 0 0 0 0 0 0 0 0
0 0 0 0 0 0 0 0 0 0 0 0 0 0 0 0 0 0 0 0 0 0 0 0 0 0 0 0 0 0 0 0 0 0 0 0 0 0 0 0 0 0 0 0
0 0 0 0 0 0 0 0 0 0 0 0 0 0 0 0 0 0 0 0 0 0 0 0 0 0 0 0 0 0 0 0 0 0 0 0 0 0 0 0 0 0 0 0
0 0 0 0 0 0 0 0 0 0 0 0 0 0 0 0 0 0 0 0 0 0 0 0 0 0 0 0 0 0 0 0 0 0 0 0 0 0 0 0 0 0 0 0
0 0 0 0 0 0 0 0 0 0 0 0 0 0 0 0 0 0 0 0 0 0 0 0 0 0 0 0 0 0 0 0 0 0 0 0 0 0 0 0 0 0 0 0
0 0 0 0 0 0 0 0 0 0 0 1 0 0 0 0 0 0 0 0 0 0 0 0 0 0 0 0 0 0 0 0 0 0 0 0 0 0 0 0 0 0 0 0
0 0 0 0 0 0 0 0 0 0 0 17 2 0 0 0 0 0 0 0 0 0 0 0 0 0 0 0 0 0 0 0 0 0 0 0 0 0 0 0 0 0 0 0
0 0 0 0 0 0 0 0 0 0 10 19 17 1 0 0 0 0 0 0 0 0 0 0 0 0 0 0 0 0 0 0 0 0 0 0 0 0 3 1 0 0 0 0
0 0 0 0 0 0 0 0 0 0 0 19 27 14 6 0 0 0 0 0 0 0 0 0 0 0 0 0 0 0 0 0 0 0 0 0 0 1 0 0 0 0 0 0
4 0 0 0 0 0 0 0 0 0 2 19 29 28 31 30 25 14 7 5 1 0 0 0 0 0 0 0 0 0 0 0 0 0 1 0 3 0 0 0 0 0 0 0
0 3 0 1 0 0 0 0 0 0 7 18 17 17 26 32 24 8 0 0 4 6 0 0 0 0 3 4 6 4 2 1 1 0 3 1 0 0 0 0 0 0 0 0
0 0 0 4 3 2 2 0 0 0 2 0 21 8 11 5 3 0 0 0 0 0 0 0 0 0 0 0 0 1 0 3 4 4 1 7 0 0 0 0 0 0 0 0
CIN
0 0 0 0 0 0 0 0 0 0 -4 -30 0 0 0 0 0 -11 0 -12 -2 -4 0 -1 -67 -76 -63 -20 -30 -38 -34 -41 -15 -2 -18 -34 -65 -64 -15 -48 -48 -57 -75 -82
0 -3 0 0 0 0 0 0 0 0 -2 -2 0 0 0 0 0 0 0 -7 -2 -28 -11 0 -84 -39 -29 -17 -20 -34 -51 -59 -27 -21 -9 -7 -10 -6 -18 -10 -8 -2 -6 -20
0 0 0 -1 0 -2 0 0 0 0 -12 -21 0 0 0 0 0 -5 -3 -2 -8 -2 0 0 -74 -43 -35 -20 -20 -29 -57 -47 -54 -34 -40 -17 -10 -12 -8 -6 -11 -11 -42 -49
0 -13 0 -5 0 -5 0 -1 0 -5 -1 0 -15 0 0 0 0 -1 -6 -5 0 0 0 0 -112 -57 -41 -32 -23 -26 -32 -56 -45 -51 -33 -35 -35 -27 -31 -6 -30 -8 -38 -23
-2 -1 -8 -5 -1 -4 0 -16 0 0 0 0 -1 0 0 0 0 0 0 0 0 0 0 0 0 -55 -52 -44 -40 -27 -14 -30 -34 -29 -30 -33 -39 -44 -34 -24 -33 -40 0 -46
-4 -7 -1 -16 -7 0 0 0 -3 -6 -3 0 0 0 0 0 0 0 0 0 0 0 0 0 0 -110 -49 -38 -36 -28 -6 -9 -15 -31 -38 -30 -32 -9 -98 -54 -30 -32 -43 -35
-10 -2 -36 -1 -16 0 -5 -17 -7 -1 0 0 -1 -3 0 0 0 0 0 0 0 0 0 0 0 -216 -39 -32 -35 -29 -31 -34 -18 -18 -39 -55 -44 -37 -30 -27 -8 -3 -57 -71
0 -1 -5 -1 -1 -1 -14 0 0 -7 0 0 -13 -2 0 0 0 0 0 0 0 0 0 0 0 0 -243 -213 -183 -48 -56 -47 -40 -26 -134 -160 -144 -122 -94 -112 -20 -2 -2 -1
-8 0 -19 0 0 0 -5 -8 0 0 0 0 0 0 0 0 0 0 0 0 0 0 0 0 0 -234 -218 -189 -191 -144 -51 -20 -56 -54 -58 -76 -40 -25 -21 -5 0 0 0 0
-3 0 0 -1 0 0 -12 -24 -12 -6 0 0 0 0 0 0 0 0 0 0 0 0 0 0 0 -71 -148 -145 -167 -210 -152 -112 -44 -27 -26 -19 -120 -96 -103 -146 -41 -37 -26 -56
0 -2 0 0 -4 0 -20 0 0 0 -12 -7 0 0 0 0 0 0 0 0 0 0 0 0 0 -130 -211 -106 -51 0 0 0 0 -50 -24 -6 -34 -62 -58 -50 -8 -11 -14 -24
0 0 0 0 0 0 0 0 0 -4 0 -38 0 0 0 0 0 0 0 0 -62 -111 -126 0 0 0 0 0 0 0 0 0 0 -67 -34 -15 -9 -3 -5 -1 -6 -6 0 -1
0 -1 0 -5 0 0 0 0 0 0 0 0 -46 0 0 0 0 0 0 0 0 0 0 0 0 0 0 0 0 0 0 0 0 -87 -75 -50 -27 -6 -7 -5 0 0 0 0
0 0 0 0 0 0 0 0 0 0 -1 -7 -11 0 0 0 0 0 0 0 0 0 0 0 0 0 0 0 0 0 0 0 0 0 0 0 -103 -44 -35 0 0 0 0 0
0 0 0 0 0 0 0 0 -9 -30 0 -5 0 0 0 0 0 0 0 0 0 0 0 0 0 0 0 0 0 0 0 0 0 0 0 0 0 0 0 0 0 0 0 0
0 0 0 0 0 0 0 0 0 0 0 0 0 0 0 0 0 0 0 0 0 0 0 0 0 0 0 0 0 0 0 0 0 0 0 0 0 0 0 0 0 0 0 0
0 0 0 0 0 -4 0 0 0 0 0 0 0 0 0 0 0 0 0 0 0 0 0 0 0 0 0 0 0 0 0 0 0 0 0 0 0 0 0 0 0 0 0 0
0 0 0 0 0 0 0 0 0 0 0 0 0 0 0 0 0 0 0 0 0 0 0 0 0 0 0 0 0 0 0 0 0 0 0 0 0 0 0 0 0 0 0 0
0 0 0 0 0 0 0 0 0 0 0 0 0 0 0 0 0 0 0 0 0 0 0 0 0 0 0 0 0 0 0 0 0 0 0 0 0 0 0 0 0 0 0 0
0 0 0 0 0 0 0 0 0 0 0 -7 0 0 0 0 0 0 0 0 0 0 0 0 0 0 0 0 0 0 0 0 0 0 0 0 0 0 0 0 0 0 0 0
0 0 0 0 0 0 0 0 0 0 0 -4 -5 0 0 0 0 0 0 0 0 0 0 0 0 0 0 0 0 0 0 0 0 0 0 0 0 0 0 0 0 0 0 0
0 0 0 0 0 0 0 0 0 0 -2 -4 -8 -1 0 0 0 0 0 0 0 0 0 0 0 0 0 0 0 0 0 0 0 0 0 0 0 0 0 0 0 0 0 0
0 0 0 0 0 0 0 0 0 0 0 -13 -11 -6 -5 0 0 0 0 0 0 0 0 0 0 0 0 0 0 0 0 0 0 0 0 0 0 0 0 0 0 0 0 0
-4 0 0 0 0 0 0 0 0 -6 -28 -15 -6 -9 -2 -2 -1 -1 -10 -6 -3 0 0 0 0 0 0 0 0 0 0 0 0 -1 -3 0 0 0 0 0 0 0 0 0
-1 -1 -3 -3 0 0 0 0 0 0 -44 -14 -3 -7 -10 -5 -1 -2 0 0 0 -2 0 0 0 0 -4 -7 -8 -8 -8 -9 -4 -1 0 0 0 0 0 0 0 0 0 0
0 0 -1 -2 -1 -1 -4 0 0 0 -34 -1 -5 -2 -7 -3 0 -1 0 0 0 0 0 0 0 -1 0 0 0 -1 -1 -2 -3 -1 -1 0 0 0 0 0 0 0 0 0
Wind_Speed
nan nan nan nan nan nan nan nan nan nan nan nan nan nan nan nan nan nan nan nan nan nan nan nan 48 46 44 40 40 38 40 38 37 41 41 39 35 39 38 35 34 31 35 37
nan nan nan nan nan nan nan nan nan nan nan nan nan nan nan nan nan nan nan nan nan nan nan nan 47 44 39 35 34 37 36 37 37 38 39 41 41 40 46 43 39 36 37 38
nan nan nan nan nan nan nan nan nan nan nan nan nan nan nan nan nan nan nan nan nan nan nan nan nan 42 40 36 34 34 36 37 38 41 45 47 46 44 45 46 45 40 40 39
nan nan nan nan nan nan nan nan nan nan nan nan nan nan nan nan nan nan nan nan nan nan nan nan nan 41 38 36 36 35 37 39 39 41 46 48 47 48 45 43 46 45 41 40
nan nan nan nan nan nan nan nan nan nan nan nan nan nan nan nan nan nan nan nan nan nan nan nan nan 35 38 40 38 36 36 36 40 44 45 49 54 52 54 46 47 50 44 46
nan nan nan nan nan nan nan nan nan nan nan nan nan nan nan nan nan nan nan nan nan nan nan nan nan 43 44 42 43 42 39 41 44 47 49 56 57 55 55 51 50 50 52 51
nan nan nan nan nan nan nan nan nan nan nan nan nan nan nan nan nan nan nan nan nan nan nan nan nan nan 45 42 42 41 42 44 46 50 48 51 48 49 51 nan nan nan nan nan
nan nan nan nan nan nan nan nan nan nan nan nan nan nan nan nan nan nan nan nan nan nan nan nan nan nan nan nan nan 37 41 43 47 51 52 nan nan nan 55 nan nan nan nan nan
nan nan nan nan nan nan nan nan nan nan nan nan nan nan nan nan nan nan nan nan nan nan nan nan nan nan nan nan nan nan 42 45 46 49 49 50 nan nan nan nan nan nan nan nan
nan nan nan nan nan nan nan nan nan nan nan nan nan nan nan nan nan nan nan nan nan nan nan nan nan nan nan nan nan nan nan nan nan nan nan nan 50 55 nan nan nan nan nan nan
nan nan nan nan nan nan nan nan nan nan nan nan nan nan nan nan nan nan nan nan nan nan nan nan nan nan nan nan nan nan nan nan nan nan nan nan nan nan nan nan nan nan nan nan
nan nan nan nan nan nan nan nan nan nan nan nan nan nan nan nan nan nan nan nan nan nan nan nan nan nan nan nan nan nan nan nan nan nan nan nan nan nan nan nan nan nan nan nan
nan nan nan nan nan nan nan nan nan nan nan nan nan nan nan nan nan nan nan nan nan nan nan nan nan nan nan nan nan nan nan nan nan nan nan nan nan nan nan nan nan nan nan nan
nan nan nan nan nan nan nan nan nan nan nan nan nan nan nan nan nan nan nan nan nan nan nan nan nan nan nan nan nan nan nan nan nan nan nan nan nan nan nan nan nan nan nan nan
nan nan nan nan nan nan nan nan nan nan nan nan nan nan nan nan nan nan nan nan nan nan nan nan nan nan nan nan nan nan nan nan nan nan nan nan nan nan nan nan nan nan nan nan
nan nan nan nan nan nan nan nan nan nan nan nan nan nan nan nan nan nan nan nan nan nan nan nan nan nan nan nan nan nan nan nan nan nan nan nan nan nan nan nan nan nan nan nan
nan nan nan nan nan nan nan nan nan nan nan nan nan nan nan nan nan nan nan nan nan nan nan nan nan nan nan nan nan nan nan nan nan nan nan nan nan nan nan nan nan nan nan nan
nan nan nan nan nan nan nan nan nan nan nan nan nan nan nan nan nan nan nan nan nan nan nan nan nan nan nan nan nan nan nan nan nan nan nan nan nan nan nan nan nan nan nan nan
nan nan nan nan nan nan nan nan nan nan nan nan nan nan nan nan nan nan nan nan nan nan nan nan nan nan nan nan nan nan nan nan nan nan nan nan nan nan nan nan nan nan nan nan
nan nan nan nan nan nan nan nan nan nan nan nan nan nan nan nan nan nan nan nan nan nan nan nan nan nan nan nan nan nan nan nan nan nan nan nan nan nan nan nan nan nan nan nan
nan nan nan nan nan nan nan nan nan nan nan nan nan nan nan nan nan nan nan nan nan nan nan nan nan nan nan nan nan nan nan nan nan nan nan nan nan nan nan nan nan nan nan nan
nan nan nan nan nan nan nan nan nan nan nan nan nan nan nan nan nan nan nan nan nan nan nan nan nan nan nan nan nan nan nan nan nan nan nan nan nan nan nan nan nan nan nan nan
nan nan nan nan nan nan nan nan nan nan nan nan nan nan nan nan nan nan nan nan nan nan nan nan nan nan nan nan nan nan nan nan nan nan nan nan nan nan nan nan nan nan nan nan
nan nan nan nan nan nan nan nan nan nan nan nan nan nan nan nan nan nan nan nan nan nan nan nan nan nan nan nan nan nan nan nan nan nan nan nan nan nan nan nan nan nan nan nan
nan nan nan nan nan nan nan nan nan nan nan nan nan nan nan nan nan nan nan nan nan nan nan nan nan nan nan nan nan nan nan nan nan nan nan nan nan nan nan nan nan nan nan nan
nan nan nan nan nan nan nan nan nan nan nan nan nan nan nan nan nan nan nan nan nan nan nan nan nan nan nan nan nan nan nan nan nan nan nan nan nan nan nan nan nan nan nan nan
Wind_Direction
nan nan nan nan nan nan nan nan nan nan nan nan nan nan nan nan nan nan nan nan nan nan nan nan 231 232 234 238 245 248 253 251 259 256 255 260 266 257 254 258 266 273 276 276
nan nan nan nan nan nan nan nan nan nan nan nan nan nan nan nan nan nan nan nan nan nan nan nan 227 230 234 235 242 244 249 256 254 254 253 258 260 261 262 258 257 262 264 269
nan nan nan nan nan nan nan nan nan nan nan nan nan nan nan nan nan nan nan nan nan nan nan nan nan 227 230 233 240 250 251 255 250 254 252 248 252 256 263 262 259 257 259 261
nan nan nan nan nan nan nan nan nan nan nan nan nan nan nan nan nan nan nan nan nan nan nan nan nan 225 232 231 232 238 248 253 255 258 256 259 257 259 258 264 269 261 261 267
nan nan nan nan nan nan nan nan nan nan nan nan nan nan nan nan nan nan nan nan nan nan nan nan nan 221 226 235 238 239 248 256 261 261 258 253 256 257 260 259 265 273 274 274
nan nan nan nan nan nan nan nan nan nan nan nan nan nan nan nan nan nan nan nan nan nan nan nan nan 224 225 234 241 243 251 258 264 265 265 262 260 256 258 261 258 259 267 267
nan nan nan nan nan nan nan nan nan nan nan nan nan nan nan nan nan nan nan nan nan nan nan nan nan nan 229 235 240 246 254 258 262 264 266 267 264 258 257 nan nan nan nan nan
nan nan nan nan nan nan nan nan nan nan nan nan nan nan nan nan nan nan nan nan nan nan nan nan nan nan nan nan nan 253 261 263 266 266 268 nan nan nan 253 nan nan nan nan nan
nan nan nan nan nan nan nan nan nan nan nan nan nan nan nan nan nan nan nan nan nan nan nan nan nan nan nan nan nan nan 259 265 269 274 273 268 nan nan nan nan nan nan nan nan
nan nan nan nan nan nan nan nan nan nan nan nan nan nan nan nan nan nan nan nan nan nan nan nan nan nan nan nan nan nan nan nan nan nan nan nan 264 263 nan nan nan nan nan nan
nan nan nan nan nan nan nan nan nan nan nan nan nan nan nan nan nan nan nan nan nan nan nan nan nan nan nan nan nan nan nan nan nan nan nan nan nan nan nan nan nan nan nan nan
nan nan nan nan nan nan nan nan nan nan nan nan nan nan nan nan nan nan nan nan nan nan nan nan nan nan nan nan nan nan nan nan nan nan nan nan nan nan nan nan nan nan nan nan
nan nan nan nan nan nan nan nan nan nan nan nan nan nan nan nan nan nan nan nan nan nan nan nan nan nan nan nan nan nan nan nan nan nan nan nan nan nan nan nan nan nan nan nan
nan nan nan nan nan nan nan nan nan nan nan nan nan nan nan nan nan nan nan nan nan nan nan nan nan nan nan nan nan nan nan nan nan nan nan nan nan nan nan nan nan nan nan nan
nan nan nan nan nan nan nan nan nan nan nan nan nan nan nan nan nan nan nan nan nan nan nan nan nan nan nan nan nan nan nan nan nan nan nan nan nan nan nan nan nan nan nan nan
nan nan nan nan nan nan nan nan nan nan nan nan nan nan nan nan nan nan nan nan nan nan nan nan nan nan nan nan nan nan nan nan nan nan nan nan nan nan nan nan nan nan nan nan
nan nan nan nan nan nan nan nan nan nan nan nan nan nan nan nan nan nan nan nan nan nan nan nan nan nan nan nan nan nan nan nan nan nan nan nan nan nan nan nan nan nan nan nan
nan nan nan nan nan nan nan nan nan nan nan nan nan nan nan nan nan nan nan nan nan nan nan nan nan nan nan nan nan nan nan nan nan nan nan nan nan nan nan nan nan nan nan nan
nan nan nan nan nan nan nan nan nan nan nan nan nan nan nan nan nan nan nan nan nan nan nan nan nan nan nan nan nan nan nan nan nan nan nan nan nan nan nan nan nan nan nan nan
nan nan nan nan nan nan nan nan nan nan nan nan nan nan nan nan nan nan nan nan nan nan nan nan nan nan nan nan nan nan nan nan nan nan nan nan nan nan nan nan nan nan nan nan
nan nan nan nan nan nan nan nan nan nan nan nan nan nan nan nan nan nan nan nan nan nan nan nan nan nan nan nan nan nan nan nan nan nan nan nan nan nan nan nan nan nan nan nan
nan nan nan nan nan nan nan nan nan nan nan nan nan nan nan nan nan nan nan nan nan nan nan nan nan nan nan nan nan nan nan nan nan nan nan nan nan nan nan nan nan nan nan nan
nan nan nan nan nan nan nan nan nan nan nan nan nan nan nan nan nan nan nan nan nan nan nan nan nan nan nan nan nan nan nan nan nan nan nan nan nan nan nan nan nan nan nan nan
nan nan nan nan nan nan nan nan nan nan nan nan nan nan nan nan nan nan nan nan nan nan nan nan nan nan nan nan nan nan nan nan nan nan nan nan nan nan nan nan nan nan nan nan
nan nan nan nan nan nan nan nan nan nan nan nan nan nan nan nan nan nan nan nan nan nan nan nan nan nan nan nan nan nan nan nan nan nan nan nan nan nan nan nan nan nan nan nan
nan nan nan nan nan nan nan nan nan nan nan nan nan nan nan nan nan nan nan nan nan nan nan nan nan nan nan nan nan nan nan nan nan nan nan nan nan nan nan nan nan nan nan nan